Regional Weather Roundup
Issued by NWS

Home | Current Version | Previous Version | Text Only | Print | Product List | Glossary Off
Versions: 1 2 3 4 5 6 7 8 9 10 11 12 13 14 15 16 17 18 19 20 21 22 23 24 25 26 27 28 29 30 31 32 33 34 35 36 37 38 39 40 41 42 43 44 45 46 47 48 49 50

000
ASUS45 KABQ 222101
RWRNM
NEW MEXICO REGIONAL WEATHER ROUNDUP
NATIONAL WEATHER SERVICE ALBUQUERQUE NM
200 PM MST WED FEB 22 2017

NOTE: "FAIR" MEANS FEW OR NO CLOUDS BELOW 12,000 FEET AGL WITH NO
       SIGNIFICANT WEATHER OR OBSTRUCTIONS TO VISION.

      THIS PRODUCT IS RELEASED AS TWO VERSIONS.  ONE VERSION NEAR
      THE TOP OF THE HOUR CONTAINING PRELIMINARY DATA FROM ALBUQUERQUE
      AND OTHER STATIONS.  A FINAL VERSION WITH ADDITIONAL DATA IS
      ISSUED ABOUT 10 MINUTES AFTER THE HOUR.

NMZ501-503-504-510>518-222200-
NORTHWEST PLATEAU/NORTHCENTRAL MOUNTAINS

CITY           SKY/WX    TMP DP  RH WIND       PRES   REMARKS
FARMINGTON     FAIR      62  20  19 W16G26    29.89F
LOS ALAMOS     PTSUNNY   55  28  35 W14G21    30.03F
SANTA FE       FAIR      59  34  39 SW15      30.00F
TAOS             N/A     52  25  35 SW12      30.02F
ANGEL FIRE     CLOUDY    46  19  34 SW14G24   30.05F

$$
NMZ402-403-502-505>509-222200-
WESTCENTRAL MOUNTAINS/SOUTHWEST MOUNTAINS

CITY           SKY/WX    TMP DP  RH WIND       PRES   REMARKS
GALLUP         FAIR      55  32  41 SW17G24   30.01F
GRANTS         PTSUNNY   57  33  41 W14G21    30.04F
SILVER CITY    FAIR      71  31  23 W15G23    30.04F

$$
NMZ407-409-411-412-222200-
SOUTHERN DESERTS

CITY           SKY/WX    TMP DP  RH WIND       PRES   REMARKS
DEMING         FAIR      75  30  19 W16       29.98F
LAS CRUCES     FAIR      75  28  17 SW12      29.99F
HOLLOMAN AFB   FAIR      75  32  21 VRB6      29.99F
ALAMOGORDO     LGT RAIN  75  36  23 S10G16    29.97F
T OR C         FAIR      75  32  20 S8        29.95F

$$
NMZ519>523-222200-
CENTRAL VALLEYS/CENTRAL HIGHLANDS

CITY           SKY/WX    TMP DP  RH WIND       PRES   REMARKS
ALBUQUERQUE    PTSUNNY   62  33  33 SW7       29.97F
DOUBLE EAGLE   PTSUNNY   63  36  36 SW12G17   30.00F
MORIARTY ARPT  FAIR      66  31  27 SW22      30.01F
CLINES CORNERS PTSUNNY   58  28  32 W25G33    30.03F
BELEN          CLOUDY    67  28  23 SE3       29.95F
SOCORRO        FAIR      75  29  18 S20G26    29.93F

$$
NMZ524>526-539-540-222200-
SOUTHCENTRAL MOUNTAINS

CITY           SKY/WX    TMP DP  RH WIND       PRES   REMARKS
RUIDOSO        NOT AVBL

$$
NMZ527>531-222200-
NORTHEAST HIGHLANDS/NORTHEAST PLAINS

CITY           SKY/WX    TMP DP  RH WIND       PRES   REMARKS
RATON          FAIR      66   6   9 W28G36    29.88F
CLAYTON        FAIR      74  12   9 W22G36    29.82F

$$
NMZ532>537-222200-
EASTCENTRAL PLAINS

CITY           SKY/WX    TMP DP  RH WIND       PRES   REMARKS
TUCUMCARI      FAIR      78  27  15 W31G37    29.83F
CANNON AFB     SUNNY     79  32  18 W24G33    29.87F
CLOVIS AIRPORT FAIR      79  34  19 W24G31    29.88F

$$
NMZ028-029-538-222200-
SOUTHEAST PLAINS

CITY           SKY/WX    TMP DP  RH WIND       PRES   REMARKS
ROSWELL        FAIR      84  25  11 S15       29.88F
ARTESIA        FAIR      82  32  16 SW16G26   29.86F
CARLSBAD       FAIR      85  15   7 W14G20    29.87F
HOBBS          SUNNY     81  27  13 SW8       29.91F


$$




USA.gov is the U.S. government's official web portal to all federal, state and local government web resources and services.